Location: Waco, TX
(31.5480°N, 97.1670°W)
Time: 21:29:00
(UTC-06:00)

ISS - Pass Details

Date: 10 February 2018
Orbit: 403 x 407 km, 51.6° (Epoch: 18 February)

Event Time Altitude Azimuth Distance (km) Brightness Sun altitude
Rises 21:04:18 0° 299° (WNW) 2,314 0.8 -37.3°
Enters shadow 21:04:43 - 297° (WNW) 2,160 0.7 -37.3°
Reaches altitude 10° 21:06:45 10° 281° (W) 1,452 - -37.8°
Maximum altitude 21:09:11 20° 232° (SW) 1,010 - -38.3°
Drops below altitude 10° 21:11:36 10° 184° (S) 1,447 - -38.8°
Sets 21:14:02 0° 166° (SSE) 2,303 - -39.3°
